Location: Livorno
(43.5500°N, 10.3170°E)
Time: 16:22:56
(UTC+01:00)

Envisat - Pass Details

Date: 28 October 2020
Orbit: 764 x 766 km, 98.1° (Epoch: 30 November)

Event Time Altitude Azimuth Distance (km) Brightness Sun altitude
Rises 05:42:16 0° 21° (NNE) 3,242 6.4 -12.7°
Reaches altitude 10° 05:44:45 10° 29° (NNE) 2,310 5.8 -12.3°
Maximum altitude 05:49:28 37° 97° (E) 1,170 4.7 -11.4°
Drops below altitude 10° 05:54:08 10° 165° (SSE) 2,293 5.8 -10.6°
Sets 05:56:35 0° 173° (S) 3,215 6.4 -10.2°
